Multibeam Report for FK005B


Ship Name: Falkor
Chief Scientist: Shirley, Thomas
Texas A&M University
Source Organization: Rolling Deck to Repository
Start Date: 2012-09-17
End Date: 2012-09-29


View ISO Metadata

Visit the full NCEI Bathymetry Viewer


Multibeam Bathymetry

Cruise Details

Project: Coralgal Reefs of South Texas (CARSTX)
Instrument: Kongsberg EM710

Data Quality

Number of Files: 716
Number of Records: 6312295
BATHYMETRY DATA Quantity Percentage
Number of Beams 2524918000 100%
Number of Good Beams 2516941161 99.68%
Number of Zero Beams 0 0%
Number of Flagged Beams 7976839 0.32%
AMPLITUDE DATA Quantity Percentage
Number of Beams 2524918000 100%
Number of Good Beams 2516941161 99.68%
Number of Zero Beams 0 0%
Number of Flagged Beams 7976839 0.32%
SIDESCAN DATA Quantity Percentage
Number of Pixels 6463790080 100%
Number of Good Pixels 5469494524 84.62%
Number of Zero Pixels 0 0%
Number of Flagged Pixels 994295556 15.38%

Navigation Totals

Total Time: 198.0443 hours
Total Track Length: 3480.4984 km
Average Speed: 17.574 km/hr (9.4892 knots)

Cruise Bounds

Northern Extent: 27.886236
Southern Extent: 26.031395
Western Extent: -97.39689
Eastern Extent: -96.11227

Limits

Minimum Sonar Depth 2.8188 Maximum Sonar Depth 7.7953
Minimum Altitude 8.3586 Maximum Altitude 1017.7368
Minimum Depth 9.9646 Maximum Depth 1915.0286
Minimum Amplitude 0 Maximum Amplitude 136.5
Minimum Sidescan 0 Maximum Sidescan 327.66

File Information

Full Resolution Bathymetry as collected (raw): 713

Files File Size Description
0000_20120917_155941_FK_EM710.all.mb58.gz 61.15MB Kongsberg multibeam vendor format
0001_20120917_161100_FK_EM710.all.mb58.gz 701.65MB Kongsberg multibeam vendor format
0002_20120917_164100_FK_EM710.all.mb58.gz 694.10MB Kongsberg multibeam vendor format
0003_20120917_171100_FK_EM710.all.mb58.gz 691.78MB Kongsberg multibeam vendor format
0004_20120917_174100_FK_EM710.all.mb58.gz 696.75MB Kongsberg multibeam vendor format
0005_20120917_181100_FK_EM710.all.mb58.gz 669.33MB Kongsberg multibeam vendor format
0006_20120917_184101_FK_EM710.all.mb58.gz 425.43MB Kongsberg multibeam vendor format
0007_20120917_190227_FK_EM710.all.mb58.gz 535.66MB Kongsberg multibeam vendor format
0008_20120917_193227_FK_EM710.all.mb58.gz 490.57MB Kongsberg multibeam vendor format
0009_20120917_200227_FK_EM710.all.mb58.gz 448.49MB Kongsberg multibeam vendor format
0010_20120917_203227_FK_EM710.all.mb58.gz 401.70MB Kongsberg multibeam vendor format
0011_20120917_210227_FK_EM710.all.mb58.gz 366.99MB Kongsberg multibeam vendor format
0012_20120917_213228_FK_EM710.all.mb58.gz 347.91MB Kongsberg multibeam vendor format
0013_20120917_220228_FK_EM710.all.mb58.gz 337.59MB Kongsberg multibeam vendor format
0014_20120917_223228_FK_EM710.all.mb58.gz 321.92MB Kongsberg multibeam vendor format
0015_20120917_230218_FK_EM710.all.mb58.gz 293.96MB Kongsberg multibeam vendor format
0016_20120917_233128_FK_EM710.all.mb58.gz 23.14MB Kongsberg multibeam vendor format
0017_20120917_233353_FK_EM710.all.mb58.gz 9.26MB Kongsberg multibeam vendor format
0018_20120917_233451_FK_EM710.all.mb58.gz 58.5KB Kongsberg multibeam vendor format
0019_20120917_233451_FK_EM710.all.mb58.gz 44.83MB Kongsberg multibeam vendor format
0020_20120917_233937_FK_EM710.all.mb58.gz 245.84MB Kongsberg multibeam vendor format
0021_20120918_000524_FK_EM710.all.mb58.gz 41.09MB Kongsberg multibeam vendor format
0022_20120918_000947_FK_EM710.all.mb58.gz 182.49MB Kongsberg multibeam vendor format
0023_20120918_003540_FK_EM710.all.mb58.gz 17.62MB Kongsberg multibeam vendor format
0024_20120918_003741_FK_EM710.all.mb58.gz 17.86MB Kongsberg multibeam vendor format
0025_20120918_003945_FK_EM710.all.mb58.gz 272.06MB Kongsberg multibeam vendor format
0026_20120918_010945_FK_EM710.all.mb58.gz 283.53MB Kongsberg multibeam vendor format
0027_20120918_013945_FK_EM710.all.mb58.gz 2.75MB Kongsberg multibeam vendor format
0028_20120918_014003_FK_EM710.all.mb58.gz 13.46MB Kongsberg multibeam vendor format
0029_20120918_014130_FK_EM710.all.mb58.gz 93.41MB Kongsberg multibeam vendor format
0030_20120918_015100_FK_EM710.all.mb58.gz 85.93MB Kongsberg multibeam vendor format
0031_20120918_020008_FK_EM710.all.mb58.gz 44.93MB Kongsberg multibeam vendor format
0032_20120918_020440_FK_EM710.all.mb58.gz 30.06MB Kongsberg multibeam vendor format
0033_20120918_020805_FK_EM710.all.mb58.gz 276.53MB Kongsberg multibeam vendor format
0034_20120918_023805_FK_EM710.all.mb58.gz 23.63MB Kongsberg multibeam vendor format
0035_20120918_024042_FK_EM710.all.mb58.gz 7.95MB Kongsberg multibeam vendor format
0036_20120918_024137_FK_EM710.all.mb58.gz 271.59MB Kongsberg multibeam vendor format
0037_20120918_031137_FK_EM710.all.mb58.gz 274.29MB Kongsberg multibeam vendor format
0038_20120918_034137_FK_EM710.all.mb58.gz 278.10MB Kongsberg multibeam vendor format
0039_20120918_041137_FK_EM710.all.mb58.gz 260.20MB Kongsberg multibeam vendor format
0040_20120918_043907_FK_EM710.all.mb58.gz 9.05MB Kongsberg multibeam vendor format
0041_20120918_044003_FK_EM710.all.mb58.gz 291.11MB Kongsberg multibeam vendor format
0042_20120918_051003_FK_EM710.all.mb58.gz 292.66MB Kongsberg multibeam vendor format
0043_20120918_053920_FK_EM710.all.mb58.gz 27.02MB Kongsberg multibeam vendor format
0044_20120918_054202_FK_EM710.all.mb58.gz 301.11MB Kongsberg multibeam vendor format
0045_20120918_061125_FK_EM710.all.mb58.gz 61.07MB Kongsberg multibeam vendor format
0046_20120918_061730_FK_EM710.all.mb58.gz 289.36MB Kongsberg multibeam vendor format
0047_20120918_064730_FK_EM710.all.mb58.gz 231.93MB Kongsberg multibeam vendor format
0048_20120918_071357_FK_EM710.all.mb58.gz 42.42MB Kongsberg multibeam vendor format
0049_20120918_071911_FK_EM710.all.mb58.gz 252.51MB Kongsberg multibeam vendor format
0050_20120918_074912_FK_EM710.all.mb58.gz 259.39MB Kongsberg multibeam vendor format
0051_20120918_081912_FK_EM710.all.mb58.gz 34.63MB Kongsberg multibeam vendor format
0052_20120918_082310_FK_EM710.all.mb58.gz 125.0KB Kongsberg multibeam vendor format
0053_20120918_082311_FK_EM710.all.mb58.gz 47.53MB Kongsberg multibeam vendor format
0054_20120918_082831_FK_EM710.all.mb58.gz 64.14MB Kongsberg multibeam vendor format
0055_20120918_083531_FK_EM710.all.mb58.gz 141.94MB Kongsberg multibeam vendor format
0056_20120918_085051_FK_EM710.all.mb58.gz 110.70MB Kongsberg multibeam vendor format
0057_20120918_090312_FK_EM710.all.mb58.gz 14.93MB Kongsberg multibeam vendor format
0058_20120918_090455_FK_EM710.all.mb58.gz 259.45MB Kongsberg multibeam vendor format
0059_20120918_093455_FK_EM710.all.mb58.gz 239.07MB Kongsberg multibeam vendor format
0060_20120918_100318_FK_EM710.all.mb58.gz 39.61MB Kongsberg multibeam vendor format
0061_20120918_100811_FK_EM710.all.mb58.gz 264.51MB Kongsberg multibeam vendor format
0062_20120918_103811_FK_EM710.all.mb58.gz 228.00MB Kongsberg multibeam vendor format
0063_20120918_110140_FK_EM710.all.mb58.gz 50.87MB Kongsberg multibeam vendor format
0064_20120918_110651_FK_EM710.all.mb58.gz 47.07MB Kongsberg multibeam vendor format
0065_20120918_111127_FK_EM710.all.mb58.gz 237.27MB Kongsberg multibeam vendor format
0066_20120918_113438_FK_EM710.all.mb58.gz 11.61MB Kongsberg multibeam vendor format
0067_20120918_113548_FK_EM710.all.mb58.gz 299.93MB Kongsberg multibeam vendor format
0068_20120918_120548_FK_EM710.all.mb58.gz 290.63MB Kongsberg multibeam vendor format
0069_20120918_123549_FK_EM710.all.mb58.gz 283.81MB Kongsberg multibeam vendor format
0070_20120918_130549_FK_EM710.all.mb58.gz 278.32MB Kongsberg multibeam vendor format
0071_20120918_133549_FK_EM710.all.mb58.gz 274.69MB Kongsberg multibeam vendor format
0072_20120918_140549_FK_EM710.all.mb58.gz 243.65MB Kongsberg multibeam vendor format
0073_20120918_143245_FK_EM710.all.mb58.gz 10.74MB Kongsberg multibeam vendor format
0074_20120918_143356_FK_EM710.all.mb58.gz 276.82MB Kongsberg multibeam vendor format
0075_20120918_150357_FK_EM710.all.mb58.gz 26.90MB Kongsberg multibeam vendor format
0076_20120918_150654_FK_EM710.all.mb58.gz 19.94MB Kongsberg multibeam vendor format
0077_20120918_150907_FK_EM710.all.mb58.gz 104.79MB Kongsberg multibeam vendor format
0078_20120918_152009_FK_EM710.all.mb58.gz 39.30MB Kongsberg multibeam vendor format
0079_20120918_152422_FK_EM710.all.mb58.gz 96.39MB Kongsberg multibeam vendor format
0080_20120918_153429_FK_EM710.all.mb58.gz 281.74MB Kongsberg multibeam vendor format
0081_20120918_160429_FK_EM710.all.mb58.gz 253.16MB Kongsberg multibeam vendor format
0082_20120918_163227_FK_EM710.all.mb58.gz 24.28MB Kongsberg multibeam vendor format
0083_20120918_163515_FK_EM710.all.mb58.gz 261.88MB Kongsberg multibeam vendor format
0084_20120918_170329_FK_EM710.all.mb58.gz 13.40MB Kongsberg multibeam vendor format
0085_20120918_170455_FK_EM710.all.mb58.gz 235.36MB Kongsberg multibeam vendor format
0086_20120918_172937_FK_EM710.all.mb58.gz 35.81MB Kongsberg multibeam vendor format
0087_20120918_173322_FK_EM710.all.mb58.gz 23.11MB Kongsberg multibeam vendor format
0088_20120918_173551_FK_EM710.all.mb58.gz 302.02MB Kongsberg multibeam vendor format
0089_20120918_180551_FK_EM710.all.mb58.gz 35.92MB Kongsberg multibeam vendor format
0090_20120918_180916_FK_EM710.all.mb58.gz 14.98MB Kongsberg multibeam vendor format
0091_20120918_181042_FK_EM710.all.mb58.gz 35.58MB Kongsberg multibeam vendor format
0092_20120918_181401_FK_EM710.all.mb58.gz 31.43MB Kongsberg multibeam vendor format
0093_20120918_181655_FK_EM710.all.mb58.gz 93.15MB Kongsberg multibeam vendor format
0094_20120918_182541_FK_EM710.all.mb58.gz 23.20MB Kongsberg multibeam vendor format
0095_20120918_182751_FK_EM710.all.mb58.gz 13.17MB Kongsberg multibeam vendor format
0096_20120918_182907_FK_EM710.all.mb58.gz 304.40MB Kongsberg multibeam vendor format
0097_20120918_185907_FK_EM710.all.mb58.gz 16.84MB Kongsberg multibeam vendor format
0098_20120918_190052_FK_EM710.all.mb58.gz 18.76MB Kongsberg multibeam vendor format
0099_20120918_190253_FK_EM710.all.mb58.gz 269.68MB Kongsberg multibeam vendor format
0100_20120918_193055_FK_EM710.all.mb58.gz 24.51MB Kongsberg multibeam vendor format
0101_20120918_193329_FK_EM710.all.mb58.gz 262.73MB Kongsberg multibeam vendor format
0102_20120918_200142_FK_EM710.all.mb58.gz 23.86MB Kongsberg multibeam vendor format
0103_20120918_200426_FK_EM710.all.mb58.gz 275.11MB Kongsberg multibeam vendor format
0104_20120918_203426_FK_EM710.all.mb58.gz 276.26MB Kongsberg multibeam vendor format
0105_20120918_210333_FK_EM710.all.mb58.gz 14.32MB Kongsberg multibeam vendor format
0106_20120918_210504_FK_EM710.all.mb58.gz 94.70MB Kongsberg multibeam vendor format
0107_20120918_211435_FK_EM710.all.mb58.gz 99.73MB Kongsberg multibeam vendor format
0108_20120918_212503_FK_EM710.all.mb58.gz 40.01MB Kongsberg multibeam vendor format
0109_20120918_212910_FK_EM710.all.mb58.gz 16.98MB Kongsberg multibeam vendor format
0110_20120918_213104_FK_EM710.all.mb58.gz 278.43MB Kongsberg multibeam vendor format
0111_20120918_220104_FK_EM710.all.mb58.gz 20.10MB Kongsberg multibeam vendor format
0112_20120918_220316_FK_EM710.all.mb58.gz 6.23MB Kongsberg multibeam vendor format
0113_20120918_220359_FK_EM710.all.mb58.gz 47.21MB Kongsberg multibeam vendor format
0114_20120918_220913_FK_EM710.all.mb58.gz 45.77MB Kongsberg multibeam vendor format
0115_20120918_221431_FK_EM710.all.mb58.gz 37.37MB Kongsberg multibeam vendor format
0116_20120918_221826_FK_EM710.all.mb58.gz 276.22MB Kongsberg multibeam vendor format
0117_20120918_224826_FK_EM710.all.mb58.gz 39.01MB Kongsberg multibeam vendor format
0118_20120918_225246_FK_EM710.all.mb58.gz 157.96MB Kongsberg multibeam vendor format
0119_20120918_230838_FK_EM710.all.mb58.gz 55.99MB Kongsberg multibeam vendor format
0120_20120918_231422_FK_EM710.all.mb58.gz 288.11MB Kongsberg multibeam vendor format
0121_20120918_234423_FK_EM710.all.mb58.gz 274.72MB Kongsberg multibeam vendor format
0122_20120919_001423_FK_EM710.all.mb58.gz 27.58MB Kongsberg multibeam vendor format
0123_20120919_001728_FK_EM710.all.mb58.gz 25.45MB Kongsberg multibeam vendor format
0124_20120919_002023_FK_EM710.all.mb58.gz 82.35MB Kongsberg multibeam vendor format
0125_20120919_002933_FK_EM710.all.mb58.gz 92.08MB Kongsberg multibeam vendor format
0126_20120919_003927_FK_EM710.all.mb58.gz 93.64MB Kongsberg multibeam vendor format
0127_20120919_004921_FK_EM710.all.mb58.gz 40.76MB Kongsberg multibeam vendor format
0128_20120919_005341_FK_EM710.all.mb58.gz 81.12MB Kongsberg multibeam vendor format
0129_20120919_010204_FK_EM710.all.mb58.gz 63.42MB Kongsberg multibeam vendor format
0130_20120919_010855_FK_EM710.all.mb58.gz 81.82MB Kongsberg multibeam vendor format
0131_20120919_011741_FK_EM710.all.mb58.gz 144.50MB Kongsberg multibeam vendor format
0132_20120919_013253_FK_EM710.all.mb58.gz 251.60MB Kongsberg multibeam vendor format
0133_20120919_015956_FK_EM710.all.mb58.gz 276.13MB Kongsberg multibeam vendor format
0134_20120919_022957_FK_EM710.all.mb58.gz 286.04MB Kongsberg multibeam vendor format
0135_20120919_025956_FK_EM710.all.mb58.gz 1.67MB Kongsberg multibeam vendor format
0136_20120919_030007_FK_EM710.all.mb58.gz 17.92MB Kongsberg multibeam vendor format
0137_20120919_030159_FK_EM710.all.mb58.gz 79.75MB Kongsberg multibeam vendor format
0138_20120919_031001_FK_EM710.all.mb58.gz 43.97MB Kongsberg multibeam vendor format
0139_20120919_031439_FK_EM710.all.mb58.gz 107.34MB Kongsberg multibeam vendor format
0140_20120919_032554_FK_EM710.all.mb58.gz 100.82MB Kongsberg multibeam vendor format
0141_20120919_033706_FK_EM710.all.mb58.gz 82.71MB Kongsberg multibeam vendor format
0142_20120919_034558_FK_EM710.all.mb58.gz 52.83MB Kongsberg multibeam vendor format
0143_20120919_035138_FK_EM710.all.mb58.gz 61.25MB Kongsberg multibeam vendor format
0144_20120919_035801_FK_EM710.all.mb58.gz 59.08MB Kongsberg multibeam vendor format
0145_20120919_040437_FK_EM710.all.mb58.gz 160.97MB Kongsberg multibeam vendor format
0146_20120919_042118_FK_EM710.all.mb58.gz 40.89MB Kongsberg multibeam vendor format
0147_20120919_042542_FK_EM710.all.mb58.gz 167.32MB Kongsberg multibeam vendor format
0148_20120919_044244_FK_EM710.all.mb58.gz 65.38MB Kongsberg multibeam vendor format
0149_20120919_045004_FK_EM710.all.mb58.gz 123.81MB Kongsberg multibeam vendor format
0150_20120919_050305_FK_EM710.all.mb58.gz 79.89MB Kongsberg multibeam vendor format
0151_20120919_051133_FK_EM710.all.mb58.gz 2.47MB Kongsberg multibeam vendor format
0152_20120919_051328_FK_EM710.all.mb58.gz 96.29MB Kongsberg multibeam vendor format
0153_20120919_052343_FK_EM710.all.mb58.gz 49.87MB Kongsberg multibeam vendor format
0154_20120919_052924_FK_EM710.all.mb58.gz 43.36MB Kongsberg multibeam vendor format
0155_20120919_053416_FK_EM710.all.mb58.gz 93.24MB Kongsberg multibeam vendor format
0156_20120919_054412_FK_EM710.all.mb58.gz 50.80MB Kongsberg multibeam vendor format
0157_20120919_054941_FK_EM710.all.mb58.gz 43.15MB Kongsberg multibeam vendor format
0158_20120919_055436_FK_EM710.all.mb58.gz 29.90MB Kongsberg multibeam vendor format
0159_20120919_055758_FK_EM710.all.mb58.gz 127.02MB Kongsberg multibeam vendor format
0160_20120919_061205_FK_EM710.all.mb58.gz 113.78MB Kongsberg multibeam vendor format
0161_20120919_062336_FK_EM710.all.mb58.gz 289.63MB Kongsberg multibeam vendor format
0162_20120919_065336_FK_EM710.all.mb58.gz 115.42MB Kongsberg multibeam vendor format
0163_20120919_070558_FK_EM710.all.mb58.gz 95.51MB Kongsberg multibeam vendor format
0164_20120919_071631_FK_EM710.all.mb58.gz 65.82MB Kongsberg multibeam vendor format
0165_20120919_072404_FK_EM710.all.mb58.gz 268.93MB Kongsberg multibeam vendor format
0166_20120919_075404_FK_EM710.all.mb58.gz 268.03MB Kongsberg multibeam vendor format
0167_20120919_082405_FK_EM710.all.mb58.gz 270.69MB Kongsberg multibeam vendor format
0168_20120919_085405_FK_EM710.all.mb58.gz 275.85MB Kongsberg multibeam vendor format
0169_20120919_092405_FK_EM710.all.mb58.gz 284.06MB Kongsberg multibeam vendor format
0170_20120919_095404_FK_EM710.all.mb58.gz 286.86MB Kongsberg multibeam vendor format
0171_20120919_102405_FK_EM710.all.mb58.gz 282.15MB Kongsberg multibeam vendor format
0172_20120919_105404_FK_EM710.all.mb58.gz 278.17MB Kongsberg multibeam vendor format
0173_20120919_112405_FK_EM710.all.mb58.gz 113.56MB Kongsberg multibeam vendor format
0174_20120919_113620_FK_EM710.all.mb58.gz 139.65MB Kongsberg multibeam vendor format
0175_20120919_115115_FK_EM710.all.mb58.gz 165.74MB Kongsberg multibeam vendor format
0176_20120920_072631_FK_EM710.all.mb58.gz 317.58MB Kongsberg multibeam vendor format
0177_20120920_075631_FK_EM710.all.mb58.gz 348.02MB Kongsberg multibeam vendor format
0178_20120920_082631_FK_EM710.all.mb58.gz 390.63MB Kongsberg multibeam vendor format
0179_20120920_085631_FK_EM710.all.mb58.gz 446.25MB Kongsberg multibeam vendor format
0180_20120920_092631_FK_EM710.all.mb58.gz 513.58MB Kongsberg multibeam vendor format
0181_20120920_095631_FK_EM710.all.mb58.gz 535.46MB Kongsberg multibeam vendor format
0182_20120920_102408_FK_EM710.all.mb58.gz 113.04MB Kongsberg multibeam vendor format
0183_20120920_102954_FK_EM710.all.mb58.gz 583.70MB Kongsberg multibeam vendor format
0184_20120920_105954_FK_EM710.all.mb58.gz 515.89MB Kongsberg multibeam vendor format
0185_20120920_112954_FK_EM710.all.mb58.gz 450.24MB Kongsberg multibeam vendor format
0186_20120920_115954_FK_EM710.all.mb58.gz 394.72MB Kongsberg multibeam vendor format
0187_20120920_122954_FK_EM710.all.mb58.gz 352.09MB Kongsberg multibeam vendor format
0188_20120920_125954_FK_EM710.all.mb58.gz 322.14MB Kongsberg multibeam vendor format
0189_20120920_132954_FK_EM710.all.mb58.gz 264.21MB Kongsberg multibeam vendor format
0190_20120920_135617_FK_EM710.all.mb58.gz 284.44MB Kongsberg multibeam vendor format
0191_20120920_142617_FK_EM710.all.mb58.gz 288.87MB Kongsberg multibeam vendor format
0192_20120920_145617_FK_EM710.all.mb58.gz 291.92MB Kongsberg multibeam vendor format
0193_20120920_152617_FK_EM710.all.mb58.gz 285.18MB Kongsberg multibeam vendor format
0194_20120920_155617_FK_EM710.all.mb58.gz 266.75MB Kongsberg multibeam vendor format
0195_20120920_162617_FK_EM710.all.mb58.gz 270.27MB Kongsberg multibeam vendor format
0196_20120920_165618_FK_EM710.all.mb58.gz 285.50MB Kongsberg multibeam vendor format
0197_20120920_172618_FK_EM710.all.mb58.gz 285.48MB Kongsberg multibeam vendor format
0198_20120920_175618_FK_EM710.all.mb58.gz 286.45MB Kongsberg multibeam vendor format
0199_20120920_182618_FK_EM710.all.mb58.gz 284.74MB Kongsberg multibeam vendor format
0200_20120920_185618_FK_EM710.all.mb58.gz 220.28MB Kongsberg multibeam vendor format
0201_20120920_191920_FK_EM710.all.mb58.gz 79.52MB Kongsberg multibeam vendor format
0202_20120920_192755_FK_EM710.all.mb58.gz 153.56MB Kongsberg multibeam vendor format
0203_20120920_194355_FK_EM710.all.mb58.gz 60.20MB Kongsberg multibeam vendor format
0204_20120920_195018_FK_EM710.all.mb58.gz 12.26MB Kongsberg multibeam vendor format
0205_20120920_195134_FK_EM710.all.mb58.gz 136.72MB Kongsberg multibeam vendor format
0206_20120920_200536_FK_EM710.all.mb58.gz 42.66MB Kongsberg multibeam vendor format
0207_20120920_201008_FK_EM710.all.mb58.gz 95.47MB Kongsberg multibeam vendor format
0208_20120920_202008_FK_EM710.all.mb58.gz 56.35MB Kongsberg multibeam vendor format
0209_20120920_202607_FK_EM710.all.mb58.gz 101.53MB Kongsberg multibeam vendor format
0210_20120920_203623_FK_EM710.all.mb58.gz 38.87MB Kongsberg multibeam vendor format
0211_20120920_204028_FK_EM710.all.mb58.gz 65.21MB Kongsberg multibeam vendor format
0212_20120920_204659_FK_EM710.all.mb58.gz 170.16MB Kongsberg multibeam vendor format
0213_20120920_210430_FK_EM710.all.mb58.gz 63.62MB Kongsberg multibeam vendor format
0214_20120920_211056_FK_EM710.all.mb58.gz 70.59MB Kongsberg multibeam vendor format
0215_20120920_211806_FK_EM710.all.mb58.gz 70.06MB Kongsberg multibeam vendor format
0216_20120920_212524_FK_EM710.all.mb58.gz 103.43MB Kongsberg multibeam vendor format
0217_20120920_213550_FK_EM710.all.mb58.gz 52.68MB Kongsberg multibeam vendor format
0218_20120920_214117_FK_EM710.all.mb58.gz 127.28MB Kongsberg multibeam vendor format
0219_20120920_215413_FK_EM710.all.mb58.gz 27.18MB Kongsberg multibeam vendor format
0220_20120920_215702_FK_EM710.all.mb58.gz 104.20MB Kongsberg multibeam vendor format
0221_20120920_220734_FK_EM710.all.mb58.gz 25.93MB Kongsberg multibeam vendor format
0222_20120921_034301_FK_EM710.all.mb58.gz 144.03MB Kongsberg multibeam vendor format
0223_20120921_040504_FK_EM710.all.mb58.gz 293.04MB Kongsberg multibeam vendor format
0224_20120921_043504_FK_EM710.all.mb58.gz 293.21MB Kongsberg multibeam vendor format
0225_20120921_050504_FK_EM710.all.mb58.gz 291.55MB Kongsberg multibeam vendor format
0226_20120921_053504_FK_EM710.all.mb58.gz 292.00MB Kongsberg multibeam vendor format
0227_20120921_060504_FK_EM710.all.mb58.gz 288.69MB Kongsberg multibeam vendor format
0228_20120921_063504_FK_EM710.all.mb58.gz 286.71MB Kongsberg multibeam vendor format
0229_20120921_070505_FK_EM710.all.mb58.gz 283.48MB Kongsberg multibeam vendor format
0230_20120921_073505_FK_EM710.all.mb58.gz 283.45MB Kongsberg multibeam vendor format
0231_20120921_080505_FK_EM710.all.mb58.gz 280.78MB Kongsberg multibeam vendor format
0232_20120921_083505_FK_EM710.all.mb58.gz 283.93MB Kongsberg multibeam vendor format
0233_20120921_090505_FK_EM710.all.mb58.gz 278.38MB Kongsberg multibeam vendor format
0234_20120921_093505_FK_EM710.all.mb58.gz 287.32MB Kongsberg multibeam vendor format
0235_20120921_100505_FK_EM710.all.mb58.gz 283.18MB Kongsberg multibeam vendor format
0236_20120921_103505_FK_EM710.all.mb58.gz 275.76MB Kongsberg multibeam vendor format
0237_20120921_110505_FK_EM710.all.mb58.gz 283.66MB Kongsberg multibeam vendor format
0238_20120921_113505_FK_EM710.all.mb58.gz 273.33MB Kongsberg multibeam vendor format
0239_20120921_120505_FK_EM710.all.mb58.gz 275.07MB Kongsberg multibeam vendor format
0240_20120921_123505_FK_EM710.all.mb58.gz 128.53MB Kongsberg multibeam vendor format
0242_20120921_222126_FK_EM710.all.mb58.gz 275.42MB Kongsberg multibeam vendor format
0243_20120921_225126_FK_EM710.all.mb58.gz 63.12MB Kongsberg multibeam vendor format
0244_20120921_230125_FK_EM710.all.mb58.gz 53.25MB Kongsberg multibeam vendor format
0245_20120921_231429_FK_EM710.all.mb58.gz 268.12MB Kongsberg multibeam vendor format
0246_20120921_234429_FK_EM710.all.mb58.gz 260.79MB Kongsberg multibeam vendor format
0247_20120922_001429_FK_EM710.all.mb58.gz 256.59MB Kongsberg multibeam vendor format
0248_20120922_004429_FK_EM710.all.mb58.gz 256.09MB Kongsberg multibeam vendor format
0249_20120922_011429_FK_EM710.all.mb58.gz 254.84MB Kongsberg multibeam vendor format
0250_20120922_014429_FK_EM710.all.mb58.gz 254.83MB Kongsberg multibeam vendor format
0251_20120922_021429_FK_EM710.all.mb58.gz 257.22MB Kongsberg multibeam vendor format
0252_20120922_024429_FK_EM710.all.mb58.gz 261.54MB Kongsberg multibeam vendor format
0253_20120922_031429_FK_EM710.all.mb58.gz 261.22MB Kongsberg multibeam vendor format
0254_20120922_034429_FK_EM710.all.mb58.gz 261.79MB Kongsberg multibeam vendor format
0255_20120922_041429_FK_EM710.all.mb58.gz 261.82MB Kongsberg multibeam vendor format
0256_20120922_044429_FK_EM710.all.mb58.gz 267.97MB Kongsberg multibeam vendor format
0257_20120922_051430_FK_EM710.all.mb58.gz 268.26MB Kongsberg multibeam vendor format
0258_20120922_054430_FK_EM710.all.mb58.gz 268.70MB Kongsberg multibeam vendor format
0259_20120922_061429_FK_EM710.all.mb58.gz 262.58MB Kongsberg multibeam vendor format
0260_20120922_064430_FK_EM710.all.mb58.gz 264.24MB Kongsberg multibeam vendor format
0261_20120922_071430_FK_EM710.all.mb58.gz 265.05MB Kongsberg multibeam vendor format
0262_20120922_074430_FK_EM710.all.mb58.gz 283.31MB Kongsberg multibeam vendor format
0263_20120922_081430_FK_EM710.all.mb58.gz 279.57MB Kongsberg multibeam vendor format
0264_20120922_084430_FK_EM710.all.mb58.gz 284.60MB Kongsberg multibeam vendor format
0265_20120922_091430_FK_EM710.all.mb58.gz 270.49MB Kongsberg multibeam vendor format
0266_20120922_094430_FK_EM710.all.mb58.gz 278.60MB Kongsberg multibeam vendor format
0267_20120922_101430_FK_EM710.all.mb58.gz 276.75MB Kongsberg multibeam vendor format
0268_20120922_104430_FK_EM710.all.mb58.gz 277.77MB Kongsberg multibeam vendor format
0269_20120922_111430_FK_EM710.all.mb58.gz 267.29MB Kongsberg multibeam vendor format
0270_20120922_114431_FK_EM710.all.mb58.gz 263.75MB Kongsberg multibeam vendor format
0271_20120922_121430_FK_EM710.all.mb58.gz 266.43MB Kongsberg multibeam vendor format
0272_20120922_124430_FK_EM710.all.mb58.gz 268.88MB Kongsberg multibeam vendor format
0273_20120922_131431_FK_EM710.all.mb58.gz 80.39MB Kongsberg multibeam vendor format
0274_20120922_142119_FK_EM710.all.mb58.gz 39.7KB Kongsberg multibeam vendor format
0275_20120922_142827_FK_EM710.all.mb58.gz 2.34MB Kongsberg multibeam vendor format
0276_20120922_154712_FK_EM710.all.mb58.gz 37.81MB Kongsberg multibeam vendor format
0277_20120922_155310_FK_EM710.all.mb58.gz 99.60MB Kongsberg multibeam vendor format
0278_20120922_160923_FK_EM710.all.mb58.gz 264.97MB Kongsberg multibeam vendor format
0279_20120922_163923_FK_EM710.all.mb58.gz 288.22MB Kongsberg multibeam vendor format
0280_20120922_170923_FK_EM710.all.mb58.gz 48.52MB Kongsberg multibeam vendor format
0281_20120922_171418_FK_EM710.all.mb58.gz 31.29MB Kongsberg multibeam vendor format
0282_20120922_171726_FK_EM710.all.mb58.gz 50.96MB Kongsberg multibeam vendor format
0284_20120922_173030_FK_EM710.all.mb58.gz 69.20MB Kongsberg multibeam vendor format
0286_20120922_174346_FK_EM710.all.mb58.gz 88.08MB Kongsberg multibeam vendor format
0288_20120922_175746_FK_EM710.all.mb58.gz 69.21MB Kongsberg multibeam vendor format
0290_20120922_181046_FK_EM710.all.mb58.gz 91.06MB Kongsberg multibeam vendor format
0292_20120922_182703_FK_EM710.all.mb58.gz 59.56MB Kongsberg multibeam vendor format
0294_20120922_183921_FK_EM710.all.mb58.gz 65.84MB Kongsberg multibeam vendor format
0296_20120922_185139_FK_EM710.all.mb58.gz 65.87MB Kongsberg multibeam vendor format
0298_20120922_190513_FK_EM710.all.mb58.gz 63.57MB Kongsberg multibeam vendor format
0300_20120922_191806_FK_EM710.all.mb58.gz 62.10MB Kongsberg multibeam vendor format
0302_20120922_193145_FK_EM710.all.mb58.gz 68.39MB Kongsberg multibeam vendor format
0304_20120922_194441_FK_EM710.all.mb58.gz 75.64MB Kongsberg multibeam vendor format
0309_20120922_222458_FK_EM710.all.mb58.gz 155.00MB Kongsberg multibeam vendor format
0311_20120922_224527_FK_EM710.all.mb58.gz 171.35MB Kongsberg multibeam vendor format
0313_20120923_005724_FK_EM710.all.mb58.gz 157.49MB Kongsberg multibeam vendor format
0315_20120923_011833_FK_EM710.all.mb58.gz 202.60MB Kongsberg multibeam vendor format
0316_20120923_014114_FK_EM710.all.mb58.gz 161.70MB Kongsberg multibeam vendor format
0317_20120923_015920_FK_EM710.all.mb58.gz 180.48MB Kongsberg multibeam vendor format
0319_20120923_022342_FK_EM710.all.mb58.gz 14.08MB Kongsberg multibeam vendor format
0320_20120923_022520_FK_EM710.all.mb58.gz 124.04MB Kongsberg multibeam vendor format
0322_20120923_024329_FK_EM710.all.mb58.gz 138.91MB Kongsberg multibeam vendor format
0324_20120923_030315_FK_EM710.all.mb58.gz 136.12MB Kongsberg multibeam vendor format
0326_20120923_032450_FK_EM710.all.mb58.gz 141.70MB Kongsberg multibeam vendor format
0328_20120923_034501_FK_EM710.all.mb58.gz 140.28MB Kongsberg multibeam vendor format
0329_20120923_040106_FK_EM710.all.mb58.gz 261.82MB Kongsberg multibeam vendor format
0330_20120923_043106_FK_EM710.all.mb58.gz 269.59MB Kongsberg multibeam vendor format
0331_20120923_050106_FK_EM710.all.mb58.gz 265.30MB Kongsberg multibeam vendor format
0332_20120923_053106_FK_EM710.all.mb58.gz 281.51MB Kongsberg multibeam vendor format
0333_20120923_060106_FK_EM710.all.mb58.gz 270.95MB Kongsberg multibeam vendor format
0334_20120923_063106_FK_EM710.all.mb58.gz 279.84MB Kongsberg multibeam vendor format
0335_20120923_070106_FK_EM710.all.mb58.gz 274.28MB Kongsberg multibeam vendor format
0336_20120923_073106_FK_EM710.all.mb58.gz 274.02MB Kongsberg multibeam vendor format
0337_20120923_080106_FK_EM710.all.mb58.gz 279.27MB Kongsberg multibeam vendor format
0338_20120923_083106_FK_EM710.all.mb58.gz 269.93MB Kongsberg multibeam vendor format
0339_20120923_090106_FK_EM710.all.mb58.gz 281.49MB Kongsberg multibeam vendor format
0340_20120923_093106_FK_EM710.all.mb58.gz 275.07MB Kongsberg multibeam vendor format
0341_20120923_100106_FK_EM710.all.mb58.gz 277.28MB Kongsberg multibeam vendor format
0342_20120923_103107_FK_EM710.all.mb58.gz 286.73MB Kongsberg multibeam vendor format
0343_20120923_110107_FK_EM710.all.mb58.gz 283.49MB Kongsberg multibeam vendor format
0344_20120923_113107_FK_EM710.all.mb58.gz 273.54MB Kongsberg multibeam vendor format
0345_20120923_120107_FK_EM710.all.mb58.gz 268.79MB Kongsberg multibeam vendor format
0346_20120923_123107_FK_EM710.all.mb58.gz 284.00MB Kongsberg multibeam vendor format
0347_20120923_130107_FK_EM710.all.mb58.gz 33.97MB Kongsberg multibeam vendor format
0349_20120923_220129_FK_EM710.all.mb58.gz 321.35MB Kongsberg multibeam vendor format
0350_20120923_223129_FK_EM710.all.mb58.gz 374.32MB Kongsberg multibeam vendor format
0351_20120923_230129_FK_EM710.all.mb58.gz 442.89MB Kongsberg multibeam vendor format
0352_20120923_233129_FK_EM710.all.mb58.gz 522.30MB Kongsberg multibeam vendor format
0353_20120924_000129_FK_EM710.all.mb58.gz 88.80MB Kongsberg multibeam vendor format
0354_20120924_000618_FK_EM710.all.mb58.gz 264.20MB Kongsberg multibeam vendor format
0355_20120924_001941_FK_EM710.all.mb58.gz 61.79MB Kongsberg multibeam vendor format
0356_20120924_002258_FK_EM710.all.mb58.gz 188.12MB Kongsberg multibeam vendor format
0358_20120924_003939_FK_EM710.all.mb58.gz 135.94MB Kongsberg multibeam vendor format
0359_20120924_004650_FK_EM710.all.mb58.gz 231.97MB Kongsberg multibeam vendor format
0360_20120924_005827_FK_EM710.all.mb58.gz 92.43MB Kongsberg multibeam vendor format
0361_20120924_010317_FK_EM710.all.mb58.gz 241.14MB Kongsberg multibeam vendor format
0362_20120924_011528_FK_EM710.all.mb58.gz 59.62MB Kongsberg multibeam vendor format
0363_20120924_011841_FK_EM710.all.mb58.gz 217.12MB Kongsberg multibeam vendor format
0364_20120924_012931_FK_EM710.all.mb58.gz 325.82MB Kongsberg multibeam vendor format
0365_20120924_014552_FK_EM710.all.mb58.gz 592.45MB Kongsberg multibeam vendor format
0366_20120924_021552_FK_EM710.all.mb58.gz 581.35MB Kongsberg multibeam vendor format
0367_20120924_024552_FK_EM710.all.mb58.gz 584.88MB Kongsberg multibeam vendor format
0368_20120924_031552_FK_EM710.all.mb58.gz 573.32MB Kongsberg multibeam vendor format
0369_20120924_034552_FK_EM710.all.mb58.gz 544.04MB Kongsberg multibeam vendor format
0370_20120924_041552_FK_EM710.all.mb58.gz 534.64MB Kongsberg multibeam vendor format
0371_20120924_044552_FK_EM710.all.mb58.gz 530.27MB Kongsberg multibeam vendor format
0372_20120924_051552_FK_EM710.all.mb58.gz 535.06MB Kongsberg multibeam vendor format
0373_20120924_054553_FK_EM710.all.mb58.gz 542.62MB Kongsberg multibeam vendor format
0374_20120924_061553_FK_EM710.all.mb58.gz 534.86MB Kongsberg multibeam vendor format
0375_20120924_064553_FK_EM710.all.mb58.gz 526.59MB Kongsberg multibeam vendor format
0376_20120924_071553_FK_EM710.all.mb58.gz 563.11MB Kongsberg multibeam vendor format
0377_20120924_074553_FK_EM710.all.mb58.gz 621.34MB Kongsberg multibeam vendor format
0378_20120924_081553_FK_EM710.all.mb58.gz 641.32MB Kongsberg multibeam vendor format
0379_20120924_084553_FK_EM710.all.mb58.gz 675.10MB Kongsberg multibeam vendor format
0380_20120924_091553_FK_EM710.all.mb58.gz 648.26MB Kongsberg multibeam vendor format
0381_20120924_094553_FK_EM710.all.mb58.gz 650.50MB Kongsberg multibeam vendor format
0382_20120924_101553_FK_EM710.all.mb58.gz 683.45MB Kongsberg multibeam vendor format
0383_20120924_104553_FK_EM710.all.mb58.gz 681.95MB Kongsberg multibeam vendor format
0384_20120924_111553_FK_EM710.all.mb58.gz 696.00MB Kongsberg multibeam vendor format
0385_20120924_114553_FK_EM710.all.mb58.gz 688.47MB Kongsberg multibeam vendor format
0386_20120924_121553_FK_EM710.all.mb58.gz 654.33MB Kongsberg multibeam vendor format
0387_20120924_124553_FK_EM710.all.mb58.gz 582.80MB Kongsberg multibeam vendor format
0388_20120924_131553_FK_EM710.all.mb58.gz 217.41MB Kongsberg multibeam vendor format
0389_20120924_132801_FK_EM710.all.mb58.gz 38.73MB Kongsberg multibeam vendor format
0390_20120924_133021_FK_EM710.all.mb58.gz 98.75MB Kongsberg multibeam vendor format
0391_20120924_133600_FK_EM710.all.mb58.gz 133.24MB Kongsberg multibeam vendor format
0392_20120924_134332_FK_EM710.all.mb58.gz 48.03MB Kongsberg multibeam vendor format
0393_20120924_134623_FK_EM710.all.mb58.gz 65.63MB Kongsberg multibeam vendor format
0394_20120924_135006_FK_EM710.all.mb58.gz 2.76MB Kongsberg multibeam vendor format
0395_20120924_141124_FK_EM710.all.mb58.gz 109.30MB Kongsberg multibeam vendor format
0396_20120924_141737_FK_EM710.all.mb58.gz 131.3KB Kongsberg multibeam vendor format
0397_20120924_141737_FK_EM710.all.mb58.gz 214.67MB Kongsberg multibeam vendor format
0398_20120924_142956_FK_EM710.all.mb58.gz 52.48MB Kongsberg multibeam vendor format
0399_20120924_143257_FK_EM710.all.mb58.gz 138.28MB Kongsberg multibeam vendor format
0400_20120924_144047_FK_EM710.all.mb58.gz 50.47MB Kongsberg multibeam vendor format
0401_20120924_144349_FK_EM710.all.mb58.gz 2.81MB Kongsberg multibeam vendor format
0402_20120924_144359_FK_EM710.all.mb58.gz 113.45MB Kongsberg multibeam vendor format
0403_20120924_145022_FK_EM710.all.mb58.gz 64.71MB Kongsberg multibeam vendor format
0404_20120924_145405_FK_EM710.all.mb58.gz 137.47MB Kongsberg multibeam vendor format
0405_20120924_150151_FK_EM710.all.mb58.gz 65.45MB Kongsberg multibeam vendor format
0406_20120924_150544_FK_EM710.all.mb58.gz 101.43MB Kongsberg multibeam vendor format
0407_20120924_151129_FK_EM710.all.mb58.gz 57.06MB Kongsberg multibeam vendor format
0408_20120924_151448_FK_EM710.all.mb58.gz 133.20MB Kongsberg multibeam vendor format
0409_20120924_152219_FK_EM710.all.mb58.gz 84.66MB Kongsberg multibeam vendor format
0410_20120924_152719_FK_EM710.all.mb58.gz 34.22MB Kongsberg multibeam vendor format
0411_20120924_152917_FK_EM710.all.mb58.gz 26.30MB Kongsberg multibeam vendor format
0412_20120924_153047_FK_EM710.all.mb58.gz 34.25MB Kongsberg multibeam vendor format
0413_20120924_153250_FK_EM710.all.mb58.gz 79.13MB Kongsberg multibeam vendor format
0414_20120924_153718_FK_EM710.all.mb58.gz 27.39MB Kongsberg multibeam vendor format
0415_20120924_153854_FK_EM710.all.mb58.gz 134.37MB Kongsberg multibeam vendor format
0416_20120924_154625_FK_EM710.all.mb58.gz 53.42MB Kongsberg multibeam vendor format
0417_20120924_154934_FK_EM710.all.mb58.gz 68.01MB Kongsberg multibeam vendor format
0418_20120924_155326_FK_EM710.all.mb58.gz 95.00MB Kongsberg multibeam vendor format
0419_20120924_155855_FK_EM710.all.mb58.gz 40.12MB Kongsberg multibeam vendor format
0420_20120924_160114_FK_EM710.all.mb58.gz 157.62MB Kongsberg multibeam vendor format
0421_20120924_161007_FK_EM710.all.mb58.gz 41.32MB Kongsberg multibeam vendor format
0422_20120924_161239_FK_EM710.all.mb58.gz 151.16MB Kongsberg multibeam vendor format
0423_20120924_162109_FK_EM710.all.mb58.gz 62.15MB Kongsberg multibeam vendor format
0424_20120924_162445_FK_EM710.all.mb58.gz 112.17MB Kongsberg multibeam vendor format
0425_20120924_163103_FK_EM710.all.mb58.gz 12.42MB Kongsberg multibeam vendor format
0426_20120924_163147_FK_EM710.all.mb58.gz 21.62MB Kongsberg multibeam vendor format
0427_20120924_163301_FK_EM710.all.mb58.gz 68.22MB Kongsberg multibeam vendor format
0428_20120924_163706_FK_EM710.all.mb58.gz 135.44MB Kongsberg multibeam vendor format
0429_20120924_164444_FK_EM710.all.mb58.gz 60.95MB Kongsberg multibeam vendor format
0430_20120924_164815_FK_EM710.all.mb58.gz 158.14MB Kongsberg multibeam vendor format
0431_20120924_165711_FK_EM710.all.mb58.gz 133.19MB Kongsberg multibeam vendor format
0432_20120924_170459_FK_EM710.all.mb58.gz 52.17MB Kongsberg multibeam vendor format
0433_20120924_170757_FK_EM710.all.mb58.gz 79.78MB Kongsberg multibeam vendor format
0434_20120924_171244_FK_EM710.all.mb58.gz 65.45MB Kongsberg multibeam vendor format
0435_20120924_171628_FK_EM710.all.mb58.gz 122.59MB Kongsberg multibeam vendor format
0436_20120924_172350_FK_EM710.all.mb58.gz 58.07MB Kongsberg multibeam vendor format
0437_20120924_172711_FK_EM710.all.mb58.gz 106.41MB Kongsberg multibeam vendor format
0438_20120924_173326_FK_EM710.all.mb58.gz 55.99MB Kongsberg multibeam vendor format
0439_20120924_173647_FK_EM710.all.mb58.gz 62.21MB Kongsberg multibeam vendor format
0440_20120924_174023_FK_EM710.all.mb58.gz 54.69MB Kongsberg multibeam vendor format
0441_20120924_174342_FK_EM710.all.mb58.gz 82.09MB Kongsberg multibeam vendor format
0442_20120924_174822_FK_EM710.all.mb58.gz 45.68MB Kongsberg multibeam vendor format
0443_20120924_175107_FK_EM710.all.mb58.gz 155.75MB Kongsberg multibeam vendor format
0444_20120924_180012_FK_EM710.all.mb58.gz 176.73MB Kongsberg multibeam vendor format
0445_20120924_181027_FK_EM710.all.mb58.gz 95.00MB Kongsberg multibeam vendor format
0446_20120924_181553_FK_EM710.all.mb58.gz 44.93MB Kongsberg multibeam vendor format
0447_20120924_181837_FK_EM710.all.mb58.gz 100.24MB Kongsberg multibeam vendor format
0448_20120924_182421_FK_EM710.all.mb58.gz 66.58MB Kongsberg multibeam vendor format
0449_20120924_182817_FK_EM710.all.mb58.gz 12.85MB Kongsberg multibeam vendor format
0450_20120924_182901_FK_EM710.all.mb58.gz 107.89MB Kongsberg multibeam vendor format
0451_20120924_183511_FK_EM710.all.mb58.gz 59.49MB Kongsberg multibeam vendor format
0452_20120924_183845_FK_EM710.all.mb58.gz 231.92MB Kongsberg multibeam vendor format
0453_20120924_185211_FK_EM710.all.mb58.gz 44.03MB Kongsberg multibeam vendor format
0454_20120924_185452_FK_EM710.all.mb58.gz 107.75MB Kongsberg multibeam vendor format
0455_20120924_190101_FK_EM710.all.mb58.gz 65.05MB Kongsberg multibeam vendor format
0456_20120924_190456_FK_EM710.all.mb58.gz 159.34MB Kongsberg multibeam vendor format
0457_20120924_191414_FK_EM710.all.mb58.gz 75.20MB Kongsberg multibeam vendor format
0458_20120924_191832_FK_EM710.all.mb58.gz 27.54MB Kongsberg multibeam vendor format
0459_20120924_192010_FK_EM710.all.mb58.gz 318.28MB Kongsberg multibeam vendor format
0460_20120924_195526_FK_EM710.all.mb58.gz 0.83MB Kongsberg multibeam vendor format
0461_20120924_195614_FK_EM710.all.mb58.gz 460.67MB Kongsberg multibeam vendor format
0462_20120924_202613_FK_EM710.all.mb58.gz 376.65MB Kongsberg multibeam vendor format
0463_20120924_215929_FK_EM710.all.mb58.gz 249.39MB Kongsberg multibeam vendor format
0464_20120924_221557_FK_EM710.all.mb58.gz 110.68MB Kongsberg multibeam vendor format
0465_20120924_222306_FK_EM710.all.mb58.gz 42.26MB Kongsberg multibeam vendor format
0466_20120924_222558_FK_EM710.all.mb58.gz 96.72MB Kongsberg multibeam vendor format
0467_20120924_223215_FK_EM710.all.mb58.gz 42.34MB Kongsberg multibeam vendor format
0468_20120924_223509_FK_EM710.all.mb58.gz 104.69MB Kongsberg multibeam vendor format
0469_20120924_224159_FK_EM710.all.mb58.gz 62.71MB Kongsberg multibeam vendor format
0470_20120924_224612_FK_EM710.all.mb58.gz 102.42MB Kongsberg multibeam vendor format
0471_20120924_225251_FK_EM710.all.mb58.gz 52.25MB Kongsberg multibeam vendor format
0472_20120924_225624_FK_EM710.all.mb58.gz 116.81MB Kongsberg multibeam vendor format
0473_20120924_230400_FK_EM710.all.mb58.gz 58.16MB Kongsberg multibeam vendor format
0474_20120924_230758_FK_EM710.all.mb58.gz 100.59MB Kongsberg multibeam vendor format
0475_20120924_231433_FK_EM710.all.mb58.gz 87.57MB Kongsberg multibeam vendor format
0476_20120924_232030_FK_EM710.all.mb58.gz 111.01MB Kongsberg multibeam vendor format
0477_20120924_232741_FK_EM710.all.mb58.gz 44.04MB Kongsberg multibeam vendor format
0478_20120924_233042_FK_EM710.all.mb58.gz 102.95MB Kongsberg multibeam vendor format
0479_20120924_233725_FK_EM710.all.mb58.gz 71.71MB Kongsberg multibeam vendor format
0480_20120924_234217_FK_EM710.all.mb58.gz 109.24MB Kongsberg multibeam vendor format
0481_20120924_234925_FK_EM710.all.mb58.gz 62.81MB Kongsberg multibeam vendor format
0482_20120924_235344_FK_EM710.all.mb58.gz 89.92MB Kongsberg multibeam vendor format
0483_20120924_235939_FK_EM710.all.mb58.gz 68.29MB Kongsberg multibeam vendor format
0484_20120925_000420_FK_EM710.all.mb58.gz 119.00MB Kongsberg multibeam vendor format
0485_20120925_001207_FK_EM710.all.mb58.gz 118.33MB Kongsberg multibeam vendor format
0486_20120925_002011_FK_EM710.all.mb58.gz 90.79MB Kongsberg multibeam vendor format
0487_20120925_002611_FK_EM710.all.mb58.gz 73.88MB Kongsberg multibeam vendor format
0488_20120925_003116_FK_EM710.all.mb58.gz 105.09MB Kongsberg multibeam vendor format
0489_20120925_003809_FK_EM710.all.mb58.gz 59.71MB Kongsberg multibeam vendor format
0490_20120925_004217_FK_EM710.all.mb58.gz 106.14MB Kongsberg multibeam vendor format
0491_20120925_004918_FK_EM710.all.mb58.gz 54.41MB Kongsberg multibeam vendor format
0492_20120925_005303_FK_EM710.all.mb58.gz 114.23MB Kongsberg multibeam vendor format
0493_20120925_010033_FK_EM710.all.mb58.gz 81.40MB Kongsberg multibeam vendor format
0494_20120925_010607_FK_EM710.all.mb58.gz 99.57MB Kongsberg multibeam vendor format
0495_20120925_011243_FK_EM710.all.mb58.gz 131.24MB Kongsberg multibeam vendor format
0496_20120925_012146_FK_EM710.all.mb58.gz 118.94MB Kongsberg multibeam vendor format
0497_20120925_012936_FK_EM710.all.mb58.gz 455.95MB Kongsberg multibeam vendor format
0498_20120925_015936_FK_EM710.all.mb58.gz 455.81MB Kongsberg multibeam vendor format
0499_20120925_022937_FK_EM710.all.mb58.gz 457.13MB Kongsberg multibeam vendor format
0500_20120925_025937_FK_EM710.all.mb58.gz 443.65MB Kongsberg multibeam vendor format
0501_20120925_032937_FK_EM710.all.mb58.gz 436.46MB Kongsberg multibeam vendor format
0502_20120925_035937_FK_EM710.all.mb58.gz 438.81MB Kongsberg multibeam vendor format
0503_20120925_042937_FK_EM710.all.mb58.gz 443.76MB Kongsberg multibeam vendor format
0504_20120925_045937_FK_EM710.all.mb58.gz 450.02MB Kongsberg multibeam vendor format
0505_20120925_052937_FK_EM710.all.mb58.gz 452.80MB Kongsberg multibeam vendor format
0506_20120925_055937_FK_EM710.all.mb58.gz 462.76MB Kongsberg multibeam vendor format
0507_20120925_062937_FK_EM710.all.mb58.gz 469.71MB Kongsberg multibeam vendor format
0508_20120925_065937_FK_EM710.all.mb58.gz 464.18MB Kongsberg multibeam vendor format
0509_20120925_072937_FK_EM710.all.mb58.gz 462.10MB Kongsberg multibeam vendor format
0510_20120925_075937_FK_EM710.all.mb58.gz 460.15MB Kongsberg multibeam vendor format
0511_20120925_082937_FK_EM710.all.mb58.gz 458.52MB Kongsberg multibeam vendor format
0512_20120925_085937_FK_EM710.all.mb58.gz 454.60MB Kongsberg multibeam vendor format
0513_20120925_092937_FK_EM710.all.mb58.gz 444.17MB Kongsberg multibeam vendor format
0514_20120925_095937_FK_EM710.all.mb58.gz 438.29MB Kongsberg multibeam vendor format
0515_20120925_102937_FK_EM710.all.mb58.gz 434.73MB Kongsberg multibeam vendor format
0516_20120925_105937_FK_EM710.all.mb58.gz 434.60MB Kongsberg multibeam vendor format
0517_20120925_112937_FK_EM710.all.mb58.gz 435.22MB Kongsberg multibeam vendor format
0518_20120925_115937_FK_EM710.all.mb58.gz 446.17MB Kongsberg multibeam vendor format
0519_20120925_122937_FK_EM710.all.mb58.gz 448.12MB Kongsberg multibeam vendor format
0520_20120925_125938_FK_EM710.all.mb58.gz 439.35MB Kongsberg multibeam vendor format
0521_20120925_132938_FK_EM710.all.mb58.gz 417.07MB Kongsberg multibeam vendor format
0522_20120925_135938_FK_EM710.all.mb58.gz 53.50MB Kongsberg multibeam vendor format
0523_20120925_140330_FK_EM710.all.mb58.gz 64.85MB Kongsberg multibeam vendor format
0524_20120925_140822_FK_EM710.all.mb58.gz 84.42MB Kongsberg multibeam vendor format
0525_20120925_141432_FK_EM710.all.mb58.gz 80.93MB Kongsberg multibeam vendor format
0526_20120925_142037_FK_EM710.all.mb58.gz 43.83MB Kongsberg multibeam vendor format
0527_20120925_142351_FK_EM710.all.mb58.gz 426.06MB Kongsberg multibeam vendor format
0528_20120925_145351_FK_EM710.all.mb58.gz 333.67MB Kongsberg multibeam vendor format
0529_20120925_151543_FK_EM710.all.mb58.gz 96.64MB Kongsberg multibeam vendor format
0530_20120925_152151_FK_EM710.all.mb58.gz 66.67MB Kongsberg multibeam vendor format
0531_20120925_155857_FK_EM710.all.mb58.gz 73.12MB Kongsberg multibeam vendor format
0532_20120925_160338_FK_EM710.all.mb58.gz 53.45MB Kongsberg multibeam vendor format
0533_20120925_160716_FK_EM710.all.mb58.gz 96.34MB Kongsberg multibeam vendor format
0534_20120925_161326_FK_EM710.all.mb58.gz 43.43MB Kongsberg multibeam vendor format
0535_20120925_161620_FK_EM710.all.mb58.gz 91.66MB Kongsberg multibeam vendor format
0536_20120925_162214_FK_EM710.all.mb58.gz 52.77MB Kongsberg multibeam vendor format
0537_20120925_162550_FK_EM710.all.mb58.gz 98.45MB Kongsberg multibeam vendor format
0538_20120925_163212_FK_EM710.all.mb58.gz 43.30MB Kongsberg multibeam vendor format
0539_20120925_163509_FK_EM710.all.mb58.gz 103.63MB Kongsberg multibeam vendor format
0540_20120925_164154_FK_EM710.all.mb58.gz 23.30MB Kongsberg multibeam vendor format
0541_20120925_164331_FK_EM710.all.mb58.gz 215.30MB Kongsberg multibeam vendor format
0542_20120925_165712_FK_EM710.all.mb58.gz 38.51MB Kongsberg multibeam vendor format
0543_20120925_165941_FK_EM710.all.mb58.gz 130.31MB Kongsberg multibeam vendor format
0544_20120925_170740_FK_EM710.all.mb58.gz 40.72MB Kongsberg multibeam vendor format
0545_20120925_171017_FK_EM710.all.mb58.gz 19.29MB Kongsberg multibeam vendor format
0546_20120925_171128_FK_EM710.all.mb58.gz 43.91MB Kongsberg multibeam vendor format
0547_20120925_171419_FK_EM710.all.mb58.gz 91.41MB Kongsberg multibeam vendor format
0548_20120925_172000_FK_EM710.all.mb58.gz 56.15MB Kongsberg multibeam vendor format
0550_20120925_172350_FK_EM710.all.mb58.gz 98.52MB Kongsberg multibeam vendor format
0551_20120925_172957_FK_EM710.all.mb58.gz 144.89MB Kongsberg multibeam vendor format
0552_20120925_173912_FK_EM710.all.mb58.gz 44.54MB Kongsberg multibeam vendor format
0553_20120925_174208_FK_EM710.all.mb58.gz 115.78MB Kongsberg multibeam vendor format
0554_20120925_174924_FK_EM710.all.mb58.gz 53.27MB Kongsberg multibeam vendor format
0555_20120925_175257_FK_EM710.all.mb58.gz 457.87MB Kongsberg multibeam vendor format
0556_20120925_182257_FK_EM710.all.mb58.gz 418.88MB Kongsberg multibeam vendor format
0557_20120925_185257_FK_EM710.all.mb58.gz 407.66MB Kongsberg multibeam vendor format
0558_20120925_192257_FK_EM710.all.mb58.gz 396.00MB Kongsberg multibeam vendor format
0559_20120925_195257_FK_EM710.all.mb58.gz 385.47MB Kongsberg multibeam vendor format
0560_20120925_202257_FK_EM710.all.mb58.gz 304.96MB Kongsberg multibeam vendor format
0561_20120925_211419_FK_EM710.all.mb58.gz 309.10MB Kongsberg multibeam vendor format
0562_20120925_214419_FK_EM710.all.mb58.gz 173.53MB Kongsberg multibeam vendor format
0563_20120925_220311_FK_EM710.all.mb58.gz 267.58MB Kongsberg multibeam vendor format
0564_20120925_223311_FK_EM710.all.mb58.gz 30.86MB Kongsberg multibeam vendor format
0565_20120925_223636_FK_EM710.all.mb58.gz 95.70MB Kongsberg multibeam vendor format
0566_20120925_224745_FK_EM710.all.mb58.gz 254.43MB Kongsberg multibeam vendor format
0567_20120925_231745_FK_EM710.all.mb58.gz 64.38MB Kongsberg multibeam vendor format
0568_20120925_232519_FK_EM710.all.mb58.gz 32.29MB Kongsberg multibeam vendor format
0569_20120925_232909_FK_EM710.all.mb58.gz 255.51MB Kongsberg multibeam vendor format
0571_20120926_000313_FK_EM710.all.mb58.gz 28.78MB Kongsberg multibeam vendor format
0572_20120926_000641_FK_EM710.all.mb58.gz 255.21MB Kongsberg multibeam vendor format
0573_20120926_003641_FK_EM710.all.mb58.gz 54.17MB Kongsberg multibeam vendor format
0574_20120926_004257_FK_EM710.all.mb58.gz 33.52MB Kongsberg multibeam vendor format
0575_20120926_004655_FK_EM710.all.mb58.gz 258.49MB Kongsberg multibeam vendor format
0576_20120926_011656_FK_EM710.all.mb58.gz 30.35MB Kongsberg multibeam vendor format
0577_20120926_012028_FK_EM710.all.mb58.gz 33.20MB Kongsberg multibeam vendor format
0578_20120926_012430_FK_EM710.all.mb58.gz 260.79MB Kongsberg multibeam vendor format
0579_20120926_015430_FK_EM710.all.mb58.gz 23.87MB Kongsberg multibeam vendor format
0580_20120926_015713_FK_EM710.all.mb58.gz 23.21MB Kongsberg multibeam vendor format
0581_20120926_015956_FK_EM710.all.mb58.gz 263.50MB Kongsberg multibeam vendor format
0582_20120926_022957_FK_EM710.all.mb58.gz 263.19MB Kongsberg multibeam vendor format
0583_20120926_025956_FK_EM710.all.mb58.gz 256.46MB Kongsberg multibeam vendor format
0584_20120926_032957_FK_EM710.all.mb58.gz 247.28MB Kongsberg multibeam vendor format
0585_20120926_035957_FK_EM710.all.mb58.gz 247.40MB Kongsberg multibeam vendor format
0586_20120926_042957_FK_EM710.all.mb58.gz 239.80MB Kongsberg multibeam vendor format
0587_20120926_045957_FK_EM710.all.mb58.gz 248.53MB Kongsberg multibeam vendor format
0588_20120926_052957_FK_EM710.all.mb58.gz 249.30MB Kongsberg multibeam vendor format
0589_20120926_055957_FK_EM710.all.mb58.gz 250.84MB Kongsberg multibeam vendor format
0590_20120926_062957_FK_EM710.all.mb58.gz 251.33MB Kongsberg multibeam vendor format
0591_20120926_065957_FK_EM710.all.mb58.gz 252.97MB Kongsberg multibeam vendor format
0592_20120926_072957_FK_EM710.all.mb58.gz 253.66MB Kongsberg multibeam vendor format
0593_20120926_075957_FK_EM710.all.mb58.gz 255.60MB Kongsberg multibeam vendor format
0594_20120926_082957_FK_EM710.all.mb58.gz 255.69MB Kongsberg multibeam vendor format
0595_20120926_085957_FK_EM710.all.mb58.gz 260.34MB Kongsberg multibeam vendor format
0596_20120926_092957_FK_EM710.all.mb58.gz 265.38MB Kongsberg multibeam vendor format
0597_20120926_095957_FK_EM710.all.mb58.gz 264.53MB Kongsberg multibeam vendor format
0598_20120926_102957_FK_EM710.all.mb58.gz 270.60MB Kongsberg multibeam vendor format
0599_20120926_105957_FK_EM710.all.mb58.gz 290.44MB Kongsberg multibeam vendor format
0600_20120926_112957_FK_EM710.all.mb58.gz 285.95MB Kongsberg multibeam vendor format
0601_20120926_115958_FK_EM710.all.mb58.gz 281.02MB Kongsberg multibeam vendor format
0602_20120926_122958_FK_EM710.all.mb58.gz 126.65MB Kongsberg multibeam vendor format
0603_20120926_151330_FK_EM710.all.mb58.gz 3.11MB Kongsberg multibeam vendor format
0604_20120926_214025_FK_EM710.all.mb58.gz 284.56MB Kongsberg multibeam vendor format
0605_20120926_221025_FK_EM710.all.mb58.gz 21.57MB Kongsberg multibeam vendor format
0606_20120926_221244_FK_EM710.all.mb58.gz 71.21MB Kongsberg multibeam vendor format
0607_20120926_222007_FK_EM710.all.mb58.gz 15.87MB Kongsberg multibeam vendor format
0608_20120926_222146_FK_EM710.all.mb58.gz 100.29MB Kongsberg multibeam vendor format
0609_20120926_223206_FK_EM710.all.mb58.gz 54.05MB Kongsberg multibeam vendor format
0610_20120926_223756_FK_EM710.all.mb58.gz 82.36MB Kongsberg multibeam vendor format
0611_20120926_224640_FK_EM710.all.mb58.gz 26.99MB Kongsberg multibeam vendor format
0612_20120926_224940_FK_EM710.all.mb58.gz 63.33MB Kongsberg multibeam vendor format
0613_20120926_225626_FK_EM710.all.mb58.gz 20.28MB Kongsberg multibeam vendor format
0614_20120926_225841_FK_EM710.all.mb58.gz 44.82MB Kongsberg multibeam vendor format
0615_20120926_230330_FK_EM710.all.mb58.gz 25.04MB Kongsberg multibeam vendor format
0616_20120926_230620_FK_EM710.all.mb58.gz 34.90MB Kongsberg multibeam vendor format
0617_20120926_231008_FK_EM710.all.mb58.gz 23.05MB Kongsberg multibeam vendor format
0618_20120926_231242_FK_EM710.all.mb58.gz 38.63MB Kongsberg multibeam vendor format
0619_20120926_231654_FK_EM710.all.mb58.gz 246.88MB Kongsberg multibeam vendor format
0620_20120926_234150_FK_EM710.all.mb58.gz 27.53MB Kongsberg multibeam vendor format
0621_20120926_234441_FK_EM710.all.mb58.gz 264.02MB Kongsberg multibeam vendor format
0622_20120927_001334_FK_EM710.all.mb58.gz 41.82MB Kongsberg multibeam vendor format
0623_20120927_001829_FK_EM710.all.mb58.gz 125.58MB Kongsberg multibeam vendor format
0624_20120927_003257_FK_EM710.all.mb58.gz 11.21MB Kongsberg multibeam vendor format
0625_20120927_003417_FK_EM710.all.mb58.gz 130.59MB Kongsberg multibeam vendor format
0626_20120927_004935_FK_EM710.all.mb58.gz 78.09MB Kongsberg multibeam vendor format
0627_20120927_005907_FK_EM710.all.mb58.gz 245.00MB Kongsberg multibeam vendor format
0628_20120927_012907_FK_EM710.all.mb58.gz 244.74MB Kongsberg multibeam vendor format
0629_20120927_015907_FK_EM710.all.mb58.gz 244.99MB Kongsberg multibeam vendor format
0630_20120927_022907_FK_EM710.all.mb58.gz 243.29MB Kongsberg multibeam vendor format
0631_20120927_025907_FK_EM710.all.mb58.gz 243.98MB Kongsberg multibeam vendor format
0632_20120927_032908_FK_EM710.all.mb58.gz 243.21MB Kongsberg multibeam vendor format
0633_20120927_035907_FK_EM710.all.mb58.gz 242.08MB Kongsberg multibeam vendor format
0634_20120927_042907_FK_EM710.all.mb58.gz 241.59MB Kongsberg multibeam vendor format
0635_20120927_045908_FK_EM710.all.mb58.gz 239.93MB Kongsberg multibeam vendor format
0636_20120927_052907_FK_EM710.all.mb58.gz 240.41MB Kongsberg multibeam vendor format
0637_20120927_055908_FK_EM710.all.mb58.gz 238.23MB Kongsberg multibeam vendor format
0638_20120927_062908_FK_EM710.all.mb58.gz 235.91MB Kongsberg multibeam vendor format
0639_20120927_065908_FK_EM710.all.mb58.gz 237.47MB Kongsberg multibeam vendor format
0640_20120927_072908_FK_EM710.all.mb58.gz 239.03MB Kongsberg multibeam vendor format
0641_20120927_075908_FK_EM710.all.mb58.gz 241.40MB Kongsberg multibeam vendor format
0642_20120927_082908_FK_EM710.all.mb58.gz 240.65MB Kongsberg multibeam vendor format
0643_20120927_085908_FK_EM710.all.mb58.gz 243.38MB Kongsberg multibeam vendor format
0644_20120927_092908_FK_EM710.all.mb58.gz 242.20MB Kongsberg multibeam vendor format
0645_20120927_095908_FK_EM710.all.mb58.gz 244.35MB Kongsberg multibeam vendor format
0646_20120927_102908_FK_EM710.all.mb58.gz 246.30MB Kongsberg multibeam vendor format
0647_20120927_105908_FK_EM710.all.mb58.gz 247.13MB Kongsberg multibeam vendor format
0648_20120927_112908_FK_EM710.all.mb58.gz 248.67MB Kongsberg multibeam vendor format
0649_20120927_115909_FK_EM710.all.mb58.gz 209.34MB Kongsberg multibeam vendor format
0650_20120927_211839_FK_EM710.all.mb58.gz 249.01MB Kongsberg multibeam vendor format
0651_20120927_214840_FK_EM710.all.mb58.gz 281.00MB Kongsberg multibeam vendor format
0652_20120927_221840_FK_EM710.all.mb58.gz 312.81MB Kongsberg multibeam vendor format
0653_20120927_224840_FK_EM710.all.mb58.gz 351.52MB Kongsberg multibeam vendor format
0654_20120927_231840_FK_EM710.all.mb58.gz 403.41MB Kongsberg multibeam vendor format
0655_20120927_234840_FK_EM710.all.mb58.gz 462.63MB Kongsberg multibeam vendor format
0656_20120928_001840_FK_EM710.all.mb58.gz 312.78MB Kongsberg multibeam vendor format
0657_20120928_003653_FK_EM710.all.mb58.gz 47.54MB Kongsberg multibeam vendor format
0658_20120928_003933_FK_EM710.all.mb58.gz 387.78MB Kongsberg multibeam vendor format
0659_20120928_005832_FK_EM710.all.mb58.gz 606.38MB Kongsberg multibeam vendor format
0660_20120928_012832_FK_EM710.all.mb58.gz 612.14MB Kongsberg multibeam vendor format
0661_20120928_015832_FK_EM710.all.mb58.gz 581.40MB Kongsberg multibeam vendor format
0662_20120928_022832_FK_EM710.all.mb58.gz 612.42MB Kongsberg multibeam vendor format
0663_20120928_025832_FK_EM710.all.mb58.gz 576.60MB Kongsberg multibeam vendor format
0664_20120928_032832_FK_EM710.all.mb58.gz 12.68MB Kongsberg multibeam vendor format
0665_20120928_032907_FK_EM710.all.mb58.gz 574.90MB Kongsberg multibeam vendor format
0666_20120928_035907_FK_EM710.all.mb58.gz 619.05MB Kongsberg multibeam vendor format
0667_20120928_042907_FK_EM710.all.mb58.gz 543.14MB Kongsberg multibeam vendor format
0668_20120928_045907_FK_EM710.all.mb58.gz 610.58MB Kongsberg multibeam vendor format
0669_20120928_052908_FK_EM710.all.mb58.gz 582.23MB Kongsberg multibeam vendor format
0670_20120928_055908_FK_EM710.all.mb58.gz 563.84MB Kongsberg multibeam vendor format
0671_20120928_062908_FK_EM710.all.mb58.gz 598.01MB Kongsberg multibeam vendor format
0672_20120928_065908_FK_EM710.all.mb58.gz 580.13MB Kongsberg multibeam vendor format
0673_20120928_072908_FK_EM710.all.mb58.gz 562.72MB Kongsberg multibeam vendor format
0674_20120928_075908_FK_EM710.all.mb58.gz 586.57MB Kongsberg multibeam vendor format
0675_20120928_082908_FK_EM710.all.mb58.gz 607.45MB Kongsberg multibeam vendor format
0676_20120928_085908_FK_EM710.all.mb58.gz 588.76MB Kongsberg multibeam vendor format
0677_20120928_092908_FK_EM710.all.mb58.gz 591.77MB Kongsberg multibeam vendor format
0678_20120928_095908_FK_EM710.all.mb58.gz 574.78MB Kongsberg multibeam vendor format
0679_20120928_102908_FK_EM710.all.mb58.gz 563.93MB Kongsberg multibeam vendor format
0680_20120928_105908_FK_EM710.all.mb58.gz 236.05MB Kongsberg multibeam vendor format
0681_20120928_111716_FK_EM710.all.mb58.gz 544.22MB Kongsberg multibeam vendor format
0682_20120928_114716_FK_EM710.all.mb58.gz 567.48MB Kongsberg multibeam vendor format
0683_20120928_121716_FK_EM710.all.mb58.gz 634.06MB Kongsberg multibeam vendor format
0684_20120928_124716_FK_EM710.all.mb58.gz 364.99MB Kongsberg multibeam vendor format
0685_20120928_130641_FK_EM710.all.mb58.gz 442.68MB Kongsberg multibeam vendor format
0686_20120928_132830_FK_EM710.all.mb58.gz 64.89MB Kongsberg multibeam vendor format
0687_20120928_135726_FK_EM710.all.mb58.gz 596.32MB Kongsberg multibeam vendor format
0688_20120928_142726_FK_EM710.all.mb58.gz 526.03MB Kongsberg multibeam vendor format
0689_20120928_145726_FK_EM710.all.mb58.gz 612.33MB Kongsberg multibeam vendor format
0690_20120928_152726_FK_EM710.all.mb58.gz 167.84MB Kongsberg multibeam vendor format
0691_20120928_153434_FK_EM710.all.mb58.gz 323.72MB Kongsberg multibeam vendor format
0692_20120928_154825_FK_EM710.all.mb58.gz 458.59MB Kongsberg multibeam vendor format
0693_20120928_160803_FK_EM710.all.mb58.gz 61.79MB Kongsberg multibeam vendor format
0694_20120928_161040_FK_EM710.all.mb58.gz 383.94MB Kongsberg multibeam vendor format
0695_20120928_162709_FK_EM710.all.mb58.gz 73.58MB Kongsberg multibeam vendor format
0696_20120928_163016_FK_EM710.all.mb58.gz 698.44MB Kongsberg multibeam vendor format
0697_20120928_170016_FK_EM710.all.mb58.gz 698.13MB Kongsberg multibeam vendor format
0698_20120928_173016_FK_EM710.all.mb58.gz 121.30MB Kongsberg multibeam vendor format
0699_20120928_173526_FK_EM710.all.mb58.gz 322.11MB Kongsberg multibeam vendor format
0700_20120928_174912_FK_EM710.all.mb58.gz 82.87MB Kongsberg multibeam vendor format
0701_20120928_175242_FK_EM710.all.mb58.gz 289.94MB Kongsberg multibeam vendor format
0702_20120928_180506_FK_EM710.all.mb58.gz 211.44MB Kongsberg multibeam vendor format
0703_20120928_181405_FK_EM710.all.mb58.gz 167.48MB Kongsberg multibeam vendor format
0704_20120928_182115_FK_EM710.all.mb58.gz 185.38MB Kongsberg multibeam vendor format
0705_20120928_182912_FK_EM710.all.mb58.gz 120.14MB Kongsberg multibeam vendor format
0706_20120928_183418_FK_EM710.all.mb58.gz 494.17MB Kongsberg multibeam vendor format
0707_20120928_185523_FK_EM710.all.mb58.gz 465.82MB Kongsberg multibeam vendor format
0708_20120928_191517_FK_EM710.all.mb58.gz 413.67MB Kongsberg multibeam vendor format
0709_20120928_193259_FK_EM710.all.mb58.gz 132.65MB Kongsberg multibeam vendor format
0710_20120928_193837_FK_EM710.all.mb58.gz 701.41MB Kongsberg multibeam vendor format
0711_20120928_200837_FK_EM710.all.mb58.gz 184.87MB Kongsberg multibeam vendor format
0712_20120928_201631_FK_EM710.all.mb58.gz 151.44MB Kongsberg multibeam vendor format
0713_20120928_202255_FK_EM710.all.mb58.gz 426.36MB Kongsberg multibeam vendor format
0714_20120928_204109_FK_EM710.all.mb58.gz 125.97MB Kongsberg multibeam vendor format
0715_20120928_204629_FK_EM710.all.mb58.gz 429.90MB Kongsberg multibeam vendor format
0716_20120928_210453_FK_EM710.all.mb58.gz 112.48MB Kongsberg multibeam vendor format
0717_20120928_222426_FK_EM710.all.mb58.gz 112.60MB Kongsberg multibeam vendor format
0718_20120928_222913_FK_EM710.all.mb58.gz 199.07MB Kongsberg multibeam vendor format
0719_20120928_223745_FK_EM710.all.mb58.gz 126.56MB Kongsberg multibeam vendor format
0720_20120928_224307_FK_EM710.all.mb58.gz 207.42MB Kongsberg multibeam vendor format
0721_20120928_225156_FK_EM710.all.mb58.gz 111.72MB Kongsberg multibeam vendor format
0722_20120928_225643_FK_EM710.all.mb58.gz 8.23MB Kongsberg multibeam vendor format
0723_20120929_005021_FK_EM710.all.mb58.gz 9.66MB Kongsberg multibeam vendor format
0724_20120929_012014_FK_EM710.all.mb58.gz 3.26MB Kongsberg multibeam vendor format
0725_20120929_012623_FK_EM710.all.mb58.gz 700.85MB Kongsberg multibeam vendor format
0726_20120929_015623_FK_EM710.all.mb58.gz 107.62MB Kongsberg multibeam vendor format
0727_20120929_022623_FK_EM710.all.mb58.gz 22.24MB Kongsberg multibeam vendor format
0728_20120929_022720_FK_EM710.all.mb58.gz 265.92MB Kongsberg multibeam vendor format
0729_20120929_023844_FK_EM710.all.mb58.gz 702.68MB Kongsberg multibeam vendor format
0730_20120929_030844_FK_EM710.all.mb58.gz 187.40MB Kongsberg multibeam vendor format
0731_20120929_031647_FK_EM710.all.mb58.gz 122.72MB Kongsberg multibeam vendor format
0732_20120929_032200_FK_EM710.all.mb58.gz 221.19MB Kongsberg multibeam vendor format
0733_20120929_033130_FK_EM710.all.mb58.gz 62.56MB Kongsberg multibeam vendor format
0734_20120929_033409_FK_EM710.all.mb58.gz 211.60MB Kongsberg multibeam vendor format
0735_20120929_034315_FK_EM710.all.mb58.gz 66.82MB Kongsberg multibeam vendor format
0736_20120929_034605_FK_EM710.all.mb58.gz 253.03MB Kongsberg multibeam vendor format
0737_20120929_035657_FK_EM710.all.mb58.gz 82.71MB Kongsberg multibeam vendor format
0738_20120929_040028_FK_EM710.all.mb58.gz 118.85MB Kongsberg multibeam vendor format
0739_20120929_040534_FK_EM710.all.mb58.gz 538.59MB Kongsberg multibeam vendor format
0740_20120929_042831_FK_EM710.all.mb58.gz 123.09MB Kongsberg multibeam vendor format

Metadata Files: 2

Files File Size Description
FK005B_Multibeam.xml NGDC created ISO metadata
em710_bag_info.tar.gz 45.7KB Additional cruise information

Water Column Sonar Data

Water Column Sonar Data Available: WCSD Map Viewer